Terminal Aerodrome Forecast
Issued by NWS Wilmington, NC

Home | Current Version | Previous Version | Text Only | Print | Product List | Glossary On
Versions: 1 2 3 4 5 6 7 8 9 10 11 12 13 14 15
000
FTUS42 KILM 010500
TAFMYR
TAF
KMYR 010536Z 0106/0206 11012KT P6SM VCTS SCT025CB BKN060 OVC120
      TEMPO 0106/0109 VRB20KT 3SM SHRA BKN020
     FM010900 10009KT 6SM -SHRA SCT025 BKN060
     FM011700 12012KT P6SM VCTS SCT025 BKN040CB
      AMD LTD TO CLD VIS AND WIND TIL 011100=

USA.gov is the U.S. government's official web portal to all federal, state and local government web resources and services.